NIMBUS 2 DEB, 59975

Orbit data source: Space-Track

NIMBUS 2 DEB, 59975 is space debris in SSO originally from a launch on Sun, 15 May 1966 UTC launched from the Air Force Western Test Range (AFWTR). Debris objects in space refer to the collection of defunct objects orbiting the Earth. Examples of debris include non-operational satellites, rocket bodies, and fragments generated from explosions, collisions, or faulty payload assembly.

Loading next visibility...
Identifier
59975, 1966-040CE
Orbit
SSO
Country
Flag of USUS
Related business
Manufacturer
Unknown
Mission
Spacecraft
Bus & Motor
Unknown
Mass
Unknown
Launch date (UTC)
1966-05-15 (60 years ago)
Launch vehicle
Unknown
Launch site
Air Force Western Test Range (AFWTR)
Object type
Payload
Rocket body
Debris
Shape & HBR
Unknown shape, 0.1 m
Radar Cross Section
Small (<0.1 m²)

Expand to show TLE details & history
Last TLE update: 2 days ago

TLE from 2 days ago
0 NIMBUS 2 DEB
1 59975U 66040CE  26171.19813338  .00001866  00000-0  32289-2 0  9991
2 59975 100.1415 331.2147 0045034 150.8905 209.4749 13.45035182330748
Epoch: 2026-06-20T04:45Z
TLE epoch observation values (Epoch: 2026-06-20T04:45:18.724Z)
Latitude
-0.00001°
Longitude
-8.52952°
Altitude
1,122.668 km
Speed
7.277 km/s
True Right ascension
22h 04m 51s
True Declination
0° 00' 00"
Sunlit
Object was in daylight at epoch
Visualization orbit readout
Latitude
Unknown
Longitude
Unknown
Altitude
Unknown
Speed
Unknown
Apparent Right ascension
Unknown
Apparent Declination
Unknown
Sunlit
N/A
Visualization observer readout
Local Sidereal Time
21:41:46
Azimuth
Unknown
Elevation
Unknown
Doppler factor
Unknown
Orbital elements
Apogee altitude
1,121.535 km
Perigee altitude
1,054.29 km
Semi-major axis
7,466.049 km
Eccentricity
0.0045
Inclination
100.1415°
RAAN
331.2147°
Arg. of periapsis
150.8905°
True anomaly
209.22222°
Mean anomaly
209.4749°
Eccentric anomaly
209.34844°
Mean motion
3.36439 °/min
Orbital period
107 mins
BSTAR
0.0032289
Loading maneuver chart data...
Computing Atmospheric mass density...
Loading historical data...
Loading historical data...
Loading historical data...
Loading historical data...
Loading historical data...
Loading historical data...
Loading historical data...

Documentation

Showing up to 5 results
|